1512399600.93,4180,4.75,72604.8,-13.69,-15.39,-15.39,0,*50
1512399602.16,4181,4.75,72606.0,-13.69,-15.29,-15.39,0,*50
1512399603.4,4182,4.75,72602.5,-13.71,-15.49,-15.49,0,*5B
1512399604.64,4183,4.75,72596.8,-13.71,-15.49,-15.49,0,*5A
1512399605.92,4184,4.75,72594.5,-13.71,-15.35,-15.35,0,*5D
1512399607.21,4185,4.75,72588.5,-13.75,-15.35,-15.43,0,*59
1512399608.42,4186,4.75,72588.0,-13.69,-15.29,-15.25,0,*5A
1512399609.67,4187,4.75,72594.5,-13.69,-15.01,-15.01,0,*57
1512399610.9,4188,4.75,72594.3,-13.71,-15.07,-15.07,0,*51
1512399612.13,4189,4.75,72594.8,-13.71,-15.07,-15.11,0,*57
1512399613.38,4190,4.75,72592.8,-13.71,-15.07,-15.01,0,*5E
1512399614.65,4191,4.75,72604.5,-13.71,-15.01,-14.93,0,*53
1512399615.88,4192,4.75,72614.3,-13.71,-15.07,-15.07,0,*5A
1512399617.13,4193,4.75,72618.0,-13.69,-14.97,-14.97,0,*52
1512399618.38,4194,4.75,72622.0,-13.71,-15.01,-15.07,0,*5A
1512399619.58,4195,4.75,72626.5,-13.69,-15.07,-15.07,0,*54
1512399620.81,4196,4.75,72624.8,-13.71,-15.15,-15.15,0,*5E
1512399622.04,4197,4.75,72626.5,-13.71,-15.07,-15.07,0,*5F
1512399623.25,4198,4.75,72622.5,-13.69,-15.07,-15.15,0,*5A
1512399624.47,4199,4.75,72616.8,-13.71,-15.11,-15.11,0,*51
1512399625.74,4200,4.75,72608.3,-13.71,-15.35,-15.29,0,*5F
1512399627.02,4201,4.75,72584.5,-13.71,-15.35,-15.43,0,*52
1512399628.24,4202,4.75,72576.5,-13.69,-15.25,-15.25,0,*59
1512399629.51,4203,4.75,72566.8,-13.71,-15.21,-15.35,0,*54
1512399630.77,4204,4.75,72562.3,-13.71,-15.29,-15.21,0,*5E
1512399632.0,4205,4.75,72560.5,-13.71,-15.15,-15.15,0,*57
1512399633.27,4206,4.75,72572.8,-13.71,-15.21,-15.21,0,*54
1512399634.48,4207,4.75,72582.5,-13.69,-15.25,-15.15,0,*5F
1512399635.76,4208,4.75,72588.8,-13.71,-15.35,-15.35,0,*5A
1512399637.0,4209,4.75,72592.5,-13.71,-15.29,-15.29,0,*5B
1512399638.27,4210,4.75,72596.8,-13.71,-15.43,-15.29,0,*5F
1512399639.52,4211,4.75,72606.3,-13.71,-15.21,-15.15,0,*55
1512399640.75,4212,4.75,72606.5,-13.71,-15.07,-15.07,0,*51
1512399641.97,4213,4.75,72604.5,-13.71,-15.07,-15.07,0,*50
1512399643.22,4214,4.75,72602.8,-13.69,-15.01,-14.97,0,*50
1512399644.45,4215,4.75,72596.5,-13.71,-15.07,-15.15,0,*55
1512399645.7,4216,4.75,72596.5,-13.71,-15.01,-15.07,0,*53
1512399646.98,4217,4.75,72586.3,-13.75,-14.93,-14.93,0,*50
1512399648.23,4218,4.75,72582.5,-13.71,-15.01,-14.89,0,*5A
1512399649.48,4219,4.75,72572.8,-13.71,-14.93,-14.89,0,*51
1512399650.76,4220,4.75,72556.5,-13.71,-14.79,-14.75,0,*5C
1512399652.02,4221,4.75,72558.8,-13.69,-14.83,-14.75,0,*51
1512399653.3,4222,4.75,72564.5,-13.71,-14.93,-14.79,0,*56
1512399654.53,4223,4.75,72568.5,-13.69,-14.93,-14.89,0,*51
1512399655.81,4224,4.75,72586.3,-13.71,-14.79,-14.79,0,*54
1512399657.06,4225,4.75,72592.5,-13.71,-14.89,-14.79,0,*5A
1512399658.34,4226,4.75,72608.0,-13.71,-14.75,-14.75,0,*56
1512399659.59,4227,4.75,72608.8,-13.71,-14.65,-14.75,0,*56
1512399660.82,4228,4.75,72618.0,-13.69,-14.75,-14.61,0,*54
1512399662.07,4229,4.75,72624.5,-13.71,-14.65,-14.75,0,*58
1512399663.3,4230,4.75,72630.5,-13.69,-14.61,-14.75,0,*5D
1512399664.58,4231,4.75,72632.0,-13.71,-14.75,-14.79,0,*5C
1512399665.81,4232,4.75,72630.8,-13.69,-14.75,-14.61,0,*5F
1512399667.09,4233,4.75,72636.3,-13.71,-14.79,-14.79,0,*52
1512399668.36,4234,4.75,72630.3,-13.71,-14.79,-14.75,0,*59
1512399669.64,4235,4.75,72632.3,-13.71,-14.79,-14.79,0,*54
1512399670.9,4236,4.75,72634.5,-13.69,-14.75,-14.75,0,*5E
1512399672.15,4237,4.75,72634.8,-13.69,-14.75,-14.75,0,*5F
1512399673.41,4238,4.75,72634.8,-13.69,-14.75,-14.83,0,*59
1512399674.69,4239,4.75,72634.8,-13.71,-14.79,-14.79,0,*58
1512399675.94,4240,4.75,72636.5,-13.69,-14.75,-14.75,0,*5F
1512399677.2,4241,4.75,72640.5,-13.71,-14.79,-14.89,0,*58
1512399678.48,4242,4.75,72644.8,-13.71,-14.79,-14.79,0,*54
1512399679.73,4243,4.75,72644.3,-13.69,-14.79,-14.79,0,*5C
1512399680.96,4244,4.75,72642.0,-13.69,-14.69,-14.83,0,*5F
1512399682.22,4245,4.75,72642.5,-13.69,-14.83,-14.83,0,*5A
1512399683.49,4246,4.75,72640.3,-13.69,-14.83,-14.83,0,*59
1512399684.74,4247,4.75,72646.3,-13.71,-14.89,-14.79,0,*5E
1512399686.01,4248,4.75,72646.5,-13.69,-14.83,-14.83,0,*57
1512399687.26,4249,4.75,72642.8,-13.69,-14.75,-14.75,0,*56
1512399688.49,4250,4.75,72640.8,-13.69,-14.97,-14.89,0,*51
1512399689.74,4251,4.75,72634.0,-13.69,-14.97,-14.97,0,*5F
1512399691.01,4252,4.75,72632.0,-13.71,-15.01,-14.93,0,*5F
1512399692.28,4253,4.75,72632.3,-13.71,-15.01,-14.93,0,*5E
1512399693.54,4254,4.75,72630.5,-13.69,-14.97,-14.97,0,*5A
1512399694.77,4255,4.75,72628.5,-13.69,-15.01,-14.89,0,*5A
1512399696.01,4256,4.75,72622.3,-13.69,-15.01,-15.01,0,*58
1512399697.27,4257,4.75,72616.5,-13.69,-15.01,-14.97,0,*57
1512399698.52,4258,4.75,72612.8,-13.69,-14.97,-14.97,0,*56
1512399699.75,4259,4.75,72612.0,-13.71,-15.15,-15.15,0,*5E
1512399700.98,4260,4.75,72612.3,-13.69,-14.97,-14.89,0,*52
1512399702.21,4261,4.75,72616.5,-13.69,-14.89,-14.83,0,*56
1512399703.47,4262,4.75,72616.5,-13.69,-14.83,-14.75,0,*56
1512399704.7,4263,4.75,72618.0,-13.69,-14.75,-14.69,0,*53
1512399705.95,4264,4.75,72616.3,-13.69,-14.75,-14.83,0,*50
1512399707.21,4265,4.75,72620.5,-13.69,-14.75,-14.75,0,*58
1512399708.46,4266,4.75,72620.3,-13.69,-14.75,-14.75,0,*5B
1512399709.69,4267,4.75,72630.0,-13.71,-14.65,-14.65,0,*53
1512399710.88,4268,4.75,72630.8,-13.69,-14.69,-14.69,0,*55
1512399712.11,4269,4.75,72632.3,-13.69,-14.69,-14.75,0,*59
1512399713.36,4270,4.75,72636.5,-13.69,-14.75,-14.75,0,*5C
1512399714.58,4271,4.75,72638.3,-13.69,-14.69,-14.75,0,*50
1512399715.8,4272,4.75,72638.5,-13.69,-14.69,-14.75,0,*53
1512399717.03,4273,4.75,72640.0,-13.69,-14.69,-14.75,0,*52
1512399718.25,4274,4.75,72636.0,-13.69,-14.69,-14.75,0,*55
1512399719.45,4275,4.75,72634.5,-13.69,-14.61,-14.69,0,*51
1512399720.74,4276,4.75,72632.3,-13.67,-14.75,-14.83,0,*5D
1512399721.99,4277,4.75,72634.8,-13.69,-14.75,-14.83,0,*52
1512399723.25,4278,4.75,72640.3,-13.69,-14.75,-14.83,0,*5D
1512399724.51,4279,4.75,72648.8,-13.69,-14.83,-14.97,0,*50
1512399725.74,4280,4.75,72662.5,-13.69,-14.89,-15.01,0,*52
1512399726.96,4281,4.75,72670.8,-13.69,-15.15,-15.25,0,*51
1512399728.2,4282,4.75,72664.8,-13.69,-15.29,-15.39,0,*50
1512399729.46,4283,4.75,72662.5,-13.69,-15.39,-15.43,0,*5D
1512399730.67,4284,4.75,72656.0,-13.69,-15.53,-15.53,0,*57
1512399731.94,4285,4.75,72640.5,-13.69,-15.43,-15.43,0,*56
1512399733.2,4286,4.75,72636.5,-13.67,-15.63,-15.57,0,*5C
1512399734.43,4287,4.75,72636.3,-13.69,-15.89,-15.71,0,*53
1512399735.69,4288,4.75,72634.5,-13.71,-15.95,-15.89,0,*5F
1512399736.95,4289,4.75,72626.5,-13.71,-15.89,-15.95,0,*5E
1512399738.21,4290,4.75,72622.5,-13.71,-15.89,-15.95,0,*56
1512399739.47,4291,4.75,72618.5,-13.75,-15.81,-15.75,0,*55
1512399740.7,4292,4.75,72616.3,-13.71,-15.67,-15.63,0,*5D
1512399741.91,4293,4.75,72612.0,-13.77,-15.67,-15.71,0,*59
1512399743.19,4294,4.75,72610.8,-13.75,-15.57,-15.57,0,*5B
1512399744.44,4295,4.75,72606.8,-13.77,-15.53,-15.39,0,*54
1512399745.68,4296,4.75,72604.3,-13.77,-15.39,-15.25,0,*56
1512399746.93,4297,4.75,72608.0,-13.75,-15.29,-15.29,0,*58
1512399748.17,4298,4.75,72606.3,-13.75,-15.29,-15.29,0,*57
1512399749.42,4299,4.75,72604.0,-13.75,-15.29,-15.29,0,*56
1512399750.68,4300,4.75,72604.0,-13.77,-15.35,-15.21,0,*50
1512399751.94,4301,4.75,72604.8,-13.77,-15.39,-15.39,0,*54
1512399753.18,4302,4.75,72606.5,-13.77,-15.49,-15.39,0,*50
1512399754.4,4303,4.75,72610.0,-13.77,-15.49,-15.49,0,*56
1512399755.64,4304,4.75,72608.5,-13.77,-15.49,-15.39,0,*56
1512399756.88,4305,4.75,72608.5,-13.77,-15.39,-15.49,0,*57
1512399758.13,4306,4.75,72608.5,-13.77,-15.35,-15.25,0,*52
1512399759.39,4307,4.75,72608.3,-13.77,-15.35,-15.35,0,*52
1512399760.61,4308,4.75,72600.8,-13.77,-15.25,-15.25,0,*5D
1512399761.87,4309,4.75,72606.8,-13.77,-15.35,-15.35,0,*5C
1512399763.13,4310,4.75,72604.5,-13.77,-15.35,-15.35,0,*54
1512399764.39,4311,4.75,72606.0,-13.79,-15.49,-15.39,0,*5C
1512399765.64,4312,4.75,72598.8,-13.79,-15.49,-15.49,0,*58
1512399766.88,4313,4.75,72588.5,-13.77,-15.49,-15.39,0,*50
1512399768.14,4314,4.75,72584.5,-13.77,-15.35,-15.35,0,*50
1512399769.38,4315,4.75,72584.8,-13.79,-15.25,-15.25,0,*5F
1512399770.64,4316,4.75,72584.5,-13.79,-15.21,-15.11,0,*5F
1512399771.88,4317,4.75,72576.5,-13.79,-15.25,-15.11,0,*5A
1512399773.11,4318,4.75,72580.3,-13.79,-15.11,-15.11,0,*52
1512399774.34,4319,4.75,72582.3,-13.79,-15.11,-15.11,0,*53
1512399775.57,4320,4.75,72580.0,-13.81,-15.25,-15.25,0,*5E
1512399776.82,4321,4.75,72584.3,-13.79,-15.21,-15.11,0,*5B
1512399778.08,4322,4.75,72590.5,-13.79,-15.21,-15.11,0,*58
1512399779.33,4323,4.75,72590.8,-13.79,-15.21,-15.11,0,*59
1512399780.54,4324,4.75,72588.3,-13.77,-15.11,-15.11,0,*53
1512399781.77,4325,4.75,72588.5,-13.77,-15.25,-15.21,0,*56
1512399782.98,4326,4.75,72592.0,-13.81,-15.11,-15.11,0,*58
1512399784.22,4327,4.81,72598.0,-13.79,-15.07,-15.07,0,*5E
1512399785.45,4328,4.75,72592.8,-13.79,-15.07,-15.07,0,*51
1512399786.68,4329,4.75,72592.0,-13.79,-15.11,-15.11,0,*50
1512399787.91,4330,4.75,72592.3,-13.79,-15.11,-15.07,0,*5F
1512399789.17,4331,4.75,72592.5,-13.79,-15.11,-14.97,0,*56
1512399790.44,4332,4.75,72594.5,-13.79,-15.07,-14.97,0,*52
1512399791.7,4333,4.75,72592.0,-13.79,-15.07,-14.83,0,*56
1512399792.98,4334,4.75,72596.0,-13.79,-14.93,-14.97,0,*58
1512399794.24,4335,4.75,72592.0,-13.79,-15.07,-14.97,0,*55
1512399795.52,4336,4.75,72592.8,-13.79,-14.93,-14.93,0,*5E
1512399796.78,4337,4.75,72596.5,-13.77,-14.97,-14.97,0,*51
1512399798.03,4338,4.75,72594.5,-13.77,-14.97,-14.97,0,*5E
1512399799.29,4339,4.75,72594.8,-13.77,-14.97,-14.97,0,*5F
1512399800.52,4340,4.75,72598.5,-13.77,-14.97,-15.07,0,*59
1512399801.76,4341,4.75,72596.3,-13.77,-15.07,-14.97,0,*58
1512399802.99,4342,4.75,72594.5,-13.77,-14.93,-15.07,0,*5F
1512399804.27,4343,4.75,72600.5,-13.79,-14.93,-14.93,0,*5C
1512399805.56,4344,4.75,72596.3,-13.79,-14.83,-14.93,0,*5A
1512399806.84,4345,4.75,72602.3,-13.79,-14.93,-14.93,0,*5A
1512399808.12,4346,4.75,72600.5,-13.79,-14.93,-14.83,0,*58
1512399809.42,4347,4.75,72598.3,-13.79,-14.83,-14.83,0,*58
1512399810.67,4348,4.75,72602.8,-13.77,-14.93,-14.93,0,*59
1512399811.93,4349,4.75,72596.0,-13.77,-14.97,-14.97,0,*58
1512399813.18,4350,4.75,72594.8,-13.77,-14.97,-14.97,0,*50
1512399814.44,4351,4.75,72596.5,-13.75,-14.89,-14.93,0,*58
1512399815.72,4352,4.75,72594.8,-13.75,-14.93,-14.79,0,*54
1512399816.99,4353,4.75,72594.8,-13.77,-14.83,-14.83,0,*53
1512399818.25,4354,4.75,72594.0,-13.77,-14.79,-14.93,0,*50
1512399819.48,4355,4.75,72592.0,-13.77,-14.79,-14.69,0,*54
1512399820.76,4356,4.75,72590.8,-13.75,-14.79,-14.75,0,*58
1512399822.0,4357,4.75,72592.3,-13.77,-14.83,-14.69,0,*53
1512399823.26,4358,4.75,72594.3,-13.77,-14.79,-14.79,0,*58
1512399824.51,4359,4.75,72592.3,-13.75,-14.79,-14.69,0,*5A
1512399825.75,4360,4.75,72596.0,-13.75,-14.89,-14.65,0,*53
1512399827.01,4361,4.75,72598.5,-13.77,-14.93,-14.79,0,*56
1512399828.26,4362,4.75,72598.5,-13.75,-14.65,-14.75,0,*52
1512399829.49,4363,4.75,72598.5,-13.77,-14.79,-14.69,0,*51
1512399830.76,4364,4.75,72604.3,-13.77,-14.83,-14.79,0,*52
1512399832.02,4365,4.75,72602.3,-13.75,-14.79,-14.65,0,*59
1512399833.3,4366,4.75,72602.3,-13.75,-14.75,-14.79,0,*5B
1512399834.56,4367,4.75,72602.5,-13.77,-14.79,-14.83,0,*51
1512399835.84,4368,4.75,72600.8,-13.75,-14.75,-14.75,0,*59
1512399837.07,4369,4.75,72600.3,-13.77,-14.79,-14.69,0,*5B
1512399838.27,4370,4.75,72604.5,-13.77,-14.69,-14.69,0,*52
1512399839.51,4371,4.75,72606.3,-13.75,-14.65,-14.65,0,*51
1512399840.74,4372,4.75,72606.0,-13.75,-14.65,-14.65,0,*52
1512399841.97,4373,4.75,72606.3,-13.75,-14.65,-14.65,0,*53
1512399843.2,4374,4.75,72606.8,-13.77,-14.79,-14.69,0,*57
1512399844.48,4375,4.75,72610.3,-13.75,-14.75,-14.75,0,*55
1512399845.72,4376,4.75,72610.3,-13.75,-14.65,-14.65,0,*56
1512399846.95,4377,4.75,72608.0,-13.75,-14.65,-14.65,0,*57
1512399848.19,4378,4.75,72614.5,-13.75,-14.65,-14.65,0,*58
1512399849.42,4379,4.75,72612.3,-13.75,-14.65,-14.65,0,*59
1512399850.65,4380,4.75,72612.8,-13.75,-14.65,-14.65,0,*5F
1512399851.89,4381,4.75,72616.3,-13.75,-14.65,-14.65,0,*5E
1512399853.12,4382,4.75,72616.0,-13.75,-14.65,-14.65,0,*5D
1512399854.38,4383,4.75,72612.3,-13.71,-14.75,-14.65,0,*59
1512399855.63,4384,4.75,72616.5,-13.75,-14.65,-14.75,0,*5A
1512399856.86,4385,4.75,72614.8,-13.75,-14.65,-14.65,0,*5A
1512399858.12,4386,4.75,72618.5,-13.75,-14.65,-14.75,0,*58
1512399859.35,4387,4.75,72620.3,-13.75,-14.65,-14.65,0,*58
1512399860.58,4388,4.75,72616.8,-13.75,-14.65,-14.61,0,*53
1512399861.81,4389,4.75,72616.8,-13.75,-14.65,-14.61,0,*52
1512399863.05,4390,4.75,72620.3,-13.75,-14.61,-14.61,0,*5E
1512399864.28,4391,4.75,72620.5,-13.75,-14.61,-14.61,0,*5F
1512399865.51,4392,4.75,72618.5,-13.75,-14.65,-14.61,0,*58
1512399866.74,4393,4.75,72620.8,-13.75,-14.65,-14.61,0,*59
1512399867.97,4394,4.75,72624.8,-13.75,-14.65,-14.65,0,*5A
1512399869.21,4395,4.75,72620.5,-13.75,-14.65,-14.65,0,*5B
1512399870.44,4396,4.75,72620.5,-13.75,-14.65,-14.65,0,*58
1512399871.67,4397,4.75,72624.3,-13.75,-14.65,-14.65,0,*59
1512399872.91,4398,4.75,72626.8,-13.75,-14.65,-14.65,0,*56
1512399874.14,4399,4.75,72630.8,-13.75,-14.65,-14.61,0,*53
1512399875.36,4400,4.75,72630.0,-13.71,-14.65,-14.61,0,*50
1512399876.59,4401,4.75,72628.5,-13.71,-14.61,-14.61,0,*55
1512399877.82,4402,4.75,72632.5,-13.71,-14.65,-14.61,0,*52
1512399879.05,4403,4.75,72636.5,-13.71,-14.65,-14.61,0,*53
1512399880.27,4404,4.75,72634.0,-13.71,-14.65,-14.61,0,*54
1512399881.5,4405,4.75,72638.5,-13.71,-14.65,-14.61,0,*55
1512399882.73,4406,4.75,72640.8,-13.71,-14.65,-14.61,0,*56
1512399883.95,4407,4.75,72642.0,-13.71,-14.65,-14.61,0,*57
1512399885.18,4408,4.75,72642.8,-13.71,-14.65,-14.61,0,*58
1512399886.43,4409,4.75,72642.3,-13.71,-14.65,-14.55,0,*5E
1512399887.66,4410,4.75,72642.3,-13.71,-14.65,-14.61,0,*51
1512399888.89,4411,4.75,72646.0,-13.71,-14.65,-14.61,0,*50
1512399890.11,4412,4.75,72646.8,-13.71,-14.65,-14.61,0,*53
1512399891.37,4413,4.75,72646.0,-13.71,-14.75,-14.65,0,*57
1512399892.6,4414,4.75,72644.8,-13.71,-14.65,-14.65,0,*51
1512399893.83,4415,4.75,72644.0,-13.71,-14.65,-14.61,0,*54
1512399895.06,4416,4.75,72646.5,-13.69,-14.61,-14.55,0,*5D
1512399896.29,4417,4.75,72648.0,-13.69,-14.61,-14.55,0,*5C
1512399897.51,4418,4.75,72650.5,-13.71,-14.65,-14.61,0,*59
1512399898.74,4419,4.75,72650.8,-13.69,-14.61,-14.55,0,*52
1512399900.0,4420,4.75,72650.5,-13.71,-14.61,-14.55,0,*51
1512399901.26,4421,4.75,72648.3,-13.71,-14.61,-14.51,0,*54
1512399902.48,4422,4.75,72648.8,-13.71,-14.61,-14.61,0,*54
1512399903.71,4423,4.75,72650.8,-13.71,-14.61,-14.61,0,*55
1512399904.97,4424,4.75,72650.0,-13.69,-14.55,-14.55,0,*5B
1512399906.2,4425,4.75,72650.8,-13.71,-14.61,-14.61,0,*53
1512399907.43,4426,4.75,72652.8,-13.71,-14.65,-14.65,0,*50
1512399908.68,4427,4.75,72652.0,-13.71,-14.65,-14.75,0,*50
1512399909.93,4428,4.75,72648.3,-13.71,-14.75,-14.69,0,*53
1512399911.16,4429,4.75,72650.0,-13.69,-14.75,-14.69,0,*5B
1512399912.36,4430,4.75,72650.0,-13.69,-14.61,-14.61,0,*5E
1512399913.59,4431,4.75,72646.5,-13.69,-14.75,-14.69,0,*52
1512399914.81,4432,4.75,72646.5,-13.69,-14.75,-14.69,0,*51
1512399916.04,4433,4.75,72646.3,-13.69,-14.75,-14.69,0,*50
1512399917.32,4434,4.75,72650.3,-13.71,-14.79,-14.75,0,*5F
1512399918.6,4435,4.75,72650.0,-13.71,-14.75,-14.79,0,*5E
1512399919.85,4436,4.75,72648.0,-13.69,-14.75,-14.75,0,*58
1512399921.11,4437,4.75,72644.3,-13.69,-14.83,-14.75,0,*50
1512399922.37,4438,4.75,72646.5,-13.71,-14.89,-14.79,0,*50
1512399923.63,4439,4.75,72644.0,-13.69,-14.83,-14.83,0,*57
1512399924.89,4440,4.75,72640.5,-13.71,-14.89,-14.79,0,*5F
1512399926.14,4441,4.75,72646.0,-13.71,-14.79,-14.89,0,*5E
1512399927.38,4442,4.75,72646.8,-13.71,-14.89,-14.89,0,*52
1512399928.65,4443,4.75,72644.3,-13.71,-14.79,-15.01,0,*5D
1512399929.91,4444,4.75,72640.0,-13.71,-14.79,-14.89,0,*5B
1512399931.17,4445,4.75,72636.3,-13.71,-14.89,-14.79,0,*5A
1512399932.4,4446,4.75,72640.8,-13.71,-14.89,-14.89,0,*56
1512399933.66,4447,4.75,72642.8,-13.71,-14.79,-14.89,0,*58
1512399934.91,4448,4.75,72640.8,-13.71,-14.89,-14.93,0,*53
1512399936.17,4449,4.75,72642.0,-13.71,-14.89,-14.93,0,*52
1512399937.44,4450,4.75,72642.8,-13.71,-14.93,-14.93,0,*51
1512399938.69,4451,4.75,72640.5,-13.71,-15.01,-15.07,0,*56
1512399939.94,4452,4.75,72652.0,-13.71,-15.07,-15.21,0,*57
1512399941.17,4453,4.75,72656.5,-13.71,-15.07,-15.07,0,*52
1512399942.45,4454,4.75,72654.0,-13.71,-15.43,-15.43,0,*55
1512399943.72,4455,4.75,72654.0,-13.75,-15.43,-15.49,0,*5A
1512399945.01,4456,4.75,72646.5,-13.71,-15.35,-15.43,0,*56
1512399946.25,4457,4.75,72644.3,-13.75,-15.29,-15.29,0,*52
1512399947.51,4458,4.75,72636.5,-13.75,-15.49,-15.43,0,*57
1512399948.78,4459,4.75,72630.8,-13.75,-15.43,-15.49,0,*56
1512399950.04,4460,4.75,72640.5,-13.75,-15.49,-15.57,0,*59
1512399951.25,4461,4.75,72644.3,-13.77,-15.63,-15.63,0,*55
1512399952.46,4462,4.75,72642.0,-13.77,-15.71,-15.71,0,*56
1512399953.67,4463,4.75,72638.0,-13.77,-15.67,-15.71,0,*50
1512399954.88,4464,4.75,72642.5,-13.77,-15.53,-15.67,0,*57
1512399956.1,4465,4.75,72638.5,-13.77,-15.67,-15.71,0,*56
1512399957.33,4466,4.75,72638.5,-13.77,-15.81,-15.99,0,*5B
1512399958.62,4467,4.75,72640.3,-13.79,-15.81,-15.85,0,*59
1512399959.86,4468,4.75,72634.3,-13.81,-15.75,-15.85,0,*5A
1512399961.15,4469,4.75,72634.0,-13.79,-15.85,-15.85,0,*53
1512399962.41,4470,4.75,72636.8,-13.81,-15.89,-15.89,0,*5C
1512399963.65,4471,4.75,72636.8,-13.79,-15.67,-15.67,0,*5A
1512399964.88,4472,4.75,72636.8,-13.81,-15.57,-15.67,0,*5D
1512399966.1,4473,4.75,72634.0,-13.81,-15.53,-15.53,0,*5F
1512399967.37,4474,4.75,72624.8,-13.81,-15.43,-15.43,0,*58
1512399968.6,4475,4.75,72622.8,-13.81,-15.29,-15.29,0,*59
1512399969.86,4476,4.75,72622.3,-13.81,-15.39,-15.43,0,*57
1512399971.13,4477,4.75,72610.3,-13.81,-15.39,-15.39,0,*5B
1512399972.4,4478,4.75,72606.8,-13.81,-15.43,-15.39,0,*59
1512399973.63,4479,4.75,72606.5,-13.81,-15.29,-15.25,0,*59
1512399974.85,4480,4.75,72604.3,-13.81,-15.29,-15.29,0,*53
1512399976.1,4481,4.75,72602.8,-13.81,-15.39,-15.29,0,*53
1512399977.35,4482,4.75,72602.0,-13.83,-15.25,-15.25,0,*53
1512399978.62,4483,4.75,72596.8,-13.83,-15.29,-15.39,0,*53
1512399979.86,4484,4.75,72600.0,-13.83,-15.29,-15.25,0,*59
1512399981.11,4485,4.75,72598.3,-13.83,-15.29,-15.29,0,*54
1512399982.38,4486,4.75,72594.5,-13.81,-15.39,-15.39,0,*55
1512399983.61,4487,4.75,72592.3,-13.81,-15.29,-15.25,0,*58
1512399984.85,4488,4.75,72594.8,-13.83,-15.25,-15.15,0,*5A
1512399986.09,4489,4.75,72590.8,-13.83,-15.25,-15.15,0,*5B
1512399987.33,4490,4.75,72594.8,-13.83,-15.15,-15.15,0,*50
1512399988.57,4491,4.75,72590.0,-13.83,-15.29,-15.25,0,*5D
1512399989.82,4492,4.75,72592.3,-13.83,-15.15,-15.25,0,*51
1512399991.06,4493,4.75,72592.5,-13.83,-15.15,-15.15,0,*53
1512399992.28,4494,4.75,72594.3,-13.81,-15.25,-15.15,0,*55
1512399993.48,4495,4.75,72596.3,-13.81,-15.11,-15.11,0,*57
1512399994.72,4496,4.75,72594.3,-13.81,-15.11,-15.01,0,*55
1512399995.95,4497,4.75,72596.8,-13.81,-15.01,-15.11,0,*54
1512399997.18,4498,4.75,72600.3,-13.81,-15.11,-15.01,0,*5B
1512399998.44,4499,4.75,72598.3,-13.83,-15.01,-15.11,0,*58
1512399999.67,4500,4.75,72602.3,-13.83,-15.11,-15.11,0,*58
1512400000.93,4501,4.75,72606.3,-13.83,-15.11,-15.01,0,*58
1512400002.16,4502,4.75,72604.5,-13.81,-15.11,-14.97,0,*57
1512400003.39,4503,4.75,72608.0,-13.81,-15.01,-15.11,0,*58
1512400004.63,4504,4.75,72614.0,-13.81,-15.11,-15.01,0,*5F
1512400005.86,4505,4.75,72614.3,-13.81,-15.11,-14.97,0,*50
1512400007.12,4506,4.75,72622.5,-13.81,-15.01,-15.01,0,*5C
1512400008.35,4507,4.75,72628.8,-13.81,-14.97,-15.11,0,*52
1512400009.59,4508,4.75,72630.0,-13.81,-14.97,-14.89,0,*5D
1512400010.83,4509,4.75,72630.8,-13.81,-14.89,-14.97,0,*5C
1512400012.11,4510,4.75,72630.8,-13.79,-14.93,-14.83,0,*5D
1512400013.37,4511,4.75,72630.3,-13.81,-14.97,-14.97,0,*5A
1512400014.63,4512,4.75,72630.0,-13.81,-14.93,-15.01,0,*53
1512400015.86,4513,4.75,72630.5,-13.81,-14.97,-14.89,0,*57
1512400017.14,4514,4.75,72634.5,-13.79,-14.93,-14.93,0,*58
1512400018.4,4515,4.75,72634.5,-13.81,-14.97,-14.97,0,*5E
1512400019.66,4516,4.75,72632.8,-13.81,-15.01,-14.97,0,*53
1512400020.88,4517,4.75,72634.5,-13.81,-14.89,-14.89,0,*5C
1512400022.12,4518,4.75,72634.0,-13.81,-14.89,-14.97,0,*5C
1512400023.38,4519,4.75,72638.8,-13.81,-14.97,-15.01,0,*5C
1512400024.64,4520,4.75,72640.8,-13.81,-14.97,-14.97,0,*58
1512400025.85,4521,4.75,72646.5,-13.81,-15.11,-15.11,0,*59
1512400027.08,4522,4.75,72650.8,-13.79,-15.11,-15.07,0,*5A
1512400028.36,4523,4.75,72648.5,-13.79,-15.21,-15.21,0,*5C
1512400029.64,4524,4.75,72644.8,-13.79,-15.21,-15.21,0,*5B
1512400030.85,4525,4.75,72644.8,-13.81,-15.11,-15.11,0,*5D
1512400032.08,4526,4.75,72644.3,-13.79,-15.07,-15.07,0,*59
1512400033.3,4527,4.75,72646.5,-13.81,-15.15,-15.25,0,*5C
1512400034.53,4528,4.75,72646.3,-13.81,-15.25,-15.25,0,*50
1512400035.78,4529,4.75,72642.3,-13.79,-15.11,-15.21,0,*55
1512400037.0,4530,4.75,72642.8,-13.81,-15.25,-15.15,0,*5A
1512400038.25,4531,4.75,72638.0,-13.81,-15.29,-15.39,0,*59
1512400039.52,4532,4.75,72634.0,-13.79,-15.21,-15.21,0,*5C
1512400040.75,4533,4.75,72632.0,-13.81,-15.25,-15.29,0,*56
1512400041.97,4534,4.75,72630.8,-13.81,-15.25,-15.29,0,*51
1512400043.19,4535,4.75,72632.3,-13.81,-15.15,-15.15,0,*5C
1512400044.42,4536,4.75,72628.3,-13.81,-15.01,-15.11,0,*5E
1512400045.63,4537,4.75,72630.0,-13.81,-15.11,-15.11,0,*5E
1512400046.88,4538,4.75,72628.0,-13.79,-14.97,-15.07,0,*5E
1512400048.09,4539,4.75,72636.5,-13.81,-15.11,-15.11,0,*50
1512400049.35,4540,4.75,72638.3,-13.79,-15.07,-14.97,0,*51
1512400050.58,4541,4.75,72642.3,-13.81,-15.25,-15.25,0,*5F
1512400051.79,4542,4.75,72638.0,-13.81,-15.15,-15.15,0,*5C
1512400053.01,4543,4.75,72646.5,-13.81,-15.25,-15.11,0,*5A
1512400054.26,4544,4.75,72648.8,-13.81,-15.29,-15.39,0,*5B
1512400055.53,4545,4.75,72640.5,-13.81,-15.43,-15.43,0,*5B
1512400056.77,4546,4.75,72644.5,-13.81,-15.53,-15.43,0,*59
1512400057.98,4547,4.75,72644.3,-13.81,-15.67,-15.67,0,*59
1512400059.19,4548,4.75,72640.3,-13.81,-15.67,-15.67,0,*56
1512400060.4,4549,4.75,72636.5,-13.81,-15.67,-15.67,0,*57
1512400061.61,4550,4.75,72632.0,-13.81,-15.71,-15.67,0,*58
1512400062.85,4551,4.75,72624.5,-13.83,-15.75,-15.71,0,*58
1512400064.09,4552,4.75,72626.3,-13.83,-15.75,-15.67,0,*5C
1512400065.3,4553,4.75,72616.5,-13.85,-15.71,-15.71,0,*58
1512400066.54,4554,4.75,72610.8,-13.83,-15.67,-15.67,0,*59
1512400067.77,4555,4.75,72610.0,-13.83,-15.67,-15.67,0,*58
1512400069.06,4556,4.75,72608.3,-13.83,-15.57,-15.57,0,*5B
1512400070.27,4557,4.75,72610.5,-13.85,-15.63,-15.63,0,*5C
1512400071.48,4558,4.75,72596.3,-13.85,-15.71,-15.71,0,*53
1512400072.7,4559,4.75,72602.3,-13.85,-15.71,-15.75,0,*56
1512400073.94,4560,4.75,72606.3,-13.87,-15.71,-15.71,0,*5A
1512400075.18,4561,4.75,72608.5,-13.87,-15.71,-15.71,0,*5B
1512400076.39,4562,4.75,72606.5,-13.85,-15.67,-15.67,0,*5A
1512400077.6,4563,4.75,72604.3,-13.85,-15.71,-15.71,0,*5B
1512400078.82,4564,4.75,72608.5,-13.89,-15.75,-15.67,0,*53
1512400080.11,4565,4.75,72606.3,-13.87,-15.81,-15.85,0,*5B
1512400081.35,4566,4.75,72596.8,-13.89,-15.81,-15.75,0,*59
1512400082.62,4567,4.75,72582.3,-13.89,-15.81,-15.81,0,*53
1512400083.89,4568,4.75,72570.8,-13.89,-15.85,-15.85,0,*5C
1512400085.16,4569,4.75,72562.0,-13.89,-15.85,-15.81,0,*59
1512400086.44,4570,4.75,72552.0,-13.89,-15.85,-15.81,0,*51
1512400087.66,4571,4.75,72528.8,-13.89,-15.95,-15.95,0,*54
1512400088.9,4572,4.75,72524.0,-13.91,-15.95,-15.95,0,*5E
1512400090.14,4573,4.75,72548.0,-13.91,-15.67,-15.63,0,*5B
1512400091.38,4574,4.75,72544.0,-13.91,-15.49,-15.53,0,*53
1512400092.62,4575,4.75,72544.5,-13.91,-15.63,-15.63,0,*59
1512400093.85,4576,4.75,72560.3,-13.91,-15.53,-15.63,0,*59
1512400095.09,4577,4.75,72574.5,-13.91,-15.75,-15.67,0,*58
1512400096.39,4578,4.75,72560.3,-13.91,-15.85,-15.81,0,*50
1512400097.65,4579,4.75,72560.0,-13.91,-15.81,-15.75,0,*5E
1512400098.89,4580,4.75,72560.8,-13.91,-15.67,-15.75,0,*50
1512400100.1,4581,4.75,72562.5,-13.93,-15.67,-15.67,0,*50
1512400101.3,4582,4.75,72560.0,-13.93,-15.67,-15.67,0,*53
1512400102.51,4583,4.75,72544.8,-13.93,-15.67,-15.67,0,*52
1512400103.75,4584,4.75,72532.3,-13.91,-15.63,-15.63,0,*57
1512400105.04,4585,4.75,72546.3,-13.91,-15.39,-15.35,0,*5A
1512400106.25,4586,4.75,72548.3,-13.93,-15.49,-15.49,0,*57